This is the latest recevied weather packets stored in our database for station/object RN1M-13. If no packets are shown the sender has not sent any weather packets the latest 10 day(s).
| Time | Temp. | Humidity | Pressure | Rain* | Wind** | Luminosity | Snow |
|---|---|---|---|---|---|---|---|
| 1787719934 | 16.67° C | 100% | 1023.6 hPa | - | - | - | - |
| 1787719034 | 17.22° C | 100% | 1024 hPa | - | - | - | - |
| 1787718134 | 16.11° C | 100% | 1024.1 hPa | - | - | - | - |
| 1787717235 | 16.11° C | 100% | 1024.4 hPa | - | - | - | - |
| 1787716334 | 15.56° C | 100% | 1025.1 hPa | - | - | - | - |
| 1787715441 | 15° C | 100% | 1025.7 hPa | - | - | - | - |
| 1787714534 | 15° C | 100% | 1025.5 hPa | - | - | - | - |
| 1787713634 | 15° C | 100% | 1025.5 hPa | - | - | - | - |
| 1787712736 | 14.44° C | 100% | 1024.7 hPa | - | - | - | - |
| 1787711834 | 15° C | 100% | 1025.1 hPa | - | - | - | - |
| 1787710934 | 14.44° C | 100% | 1025.2 hPa | - | - | - | - |
| 1787710034 | 15° C | 100% | 1024.7 hPa | - | - | - | - |
| 1787709134 | 15° C | 100% | 1024.6 hPa | - | - | - | - |
| 1787708234 | 14.44° C | 100% | 1024.6 hPa | - | - | - | - |
| 1787707334 | 15° C | 100% | 1024 hPa | - | - | - | - |
| 1787706434 | 15° C | 100% | 1023.3 hPa | - | - | - | - |
| 1787705534 | 15° C | 100% | 1023.1 hPa | - | - | - | - |
| 1787703734 | 15.56° C | 100% | 1022 hPa | - | - | - | - |
| 1787702834 | 15.56° C | 100% | 1021.5 hPa | - | - | - | - |
| 1787701936 | 15.56° C | 100% | 1020.6 hPa | - | - | - | - |
| 1787701037 | 16.67° C | 100% | 1020.4 hPa | - | - | - | - |
| 1787700136 | 16.67° C | 100% | 1020.4 hPa | - | - | - | - |
| 1787699236 | 16.11° C | 100% | 1020.3 hPa | - | - | - | - |
| 1787698336 | 16.67° C | 100% | 1020.3 hPa | - | - | - | - |
| 1787697436 | 16.11° C | 100% | 1020.4 hPa | - | - | - | - |
* Rain since midnight (hover to see other rain measurements)
** Current wind speed in m/s (hover to see current wind gust speed)